Weather History for Wheeler AAF, HI

Change the Weather History Date:

Thursday, July 25, 2013

  Actual Average Record
Temperature  
Mean Temperature 75 °F -  
Max Temperature 83 °F 80 °F 86 °F (2003)
Min Temperature 67 °F 67 °F 63 °F (2011)
Cooling Degree Days 10    
Growing Degree Days 25 (Base 50)    
Moisture  
Dew Point 64 °F    
Average Humidity 69    
Maximum Humidity 87    
Minimum Humidity 51    
Precipitation  
Precipitation 0.00 in - - ()
Sea Level Pressure  
Sea Level Pressure 29.94 in    
Wind  
Wind Speed 5 mph (NE)    
Max Wind Speed 15 mph    
Max Gust Speed 18 mph    
Visibility 10 miles    
Events      
Averages and records for this station are not official NWS values.
T = Trace of Precipitation, MM = Missing Value Source: NWS Daily Summary

Daily Weather History Graph

Daily Weather History Graph

Search for Another Location

Airport:

Trip Planner

Search our weather history database for the weather conditions in past years. The results will help you decide how hot, cold, wet, or windy it might be!

Date:

Astronomy

Jul. 25, 2013 Rise Set
Actual Time 6:02 AM HST 7:14 PM HST
Civil Twilight 5:38 AM HST 7:38 PM HST
Nautical Twilight 5:10 AM HST 8:06 PM HST
Astronomical Twilight 4:40 AM HST 8:36 PM HST
Moon 9:40 PM HST (7/25) 9:10 AM HST (7/25)
Length of Visible Light 13h 59m
Length of Day
13h 11m
Waning Gibbous, 86% of the Moon is Illuminated
Jul 25
Waning Gibbous
Jul 29
Last Quarter
Aug 6
New
Aug 14
First Quarter
Aug 20
Full

Hourly Weather History & Observations

Time (HST) Temp. Heat Index Dew Point Humidity Pressure Visibility Wind Dir Wind Speed Gust Speed Precip Events Conditions
12:55 AM 69.8 °F - 64.0 °F 82% 29.93 in 10.0 mi WNW 3.5 mph - N/A   Mostly Cloudy
1:55 AM 71.1 °F - 64.4 °F 79% 29.92 in 10.0 mi NW 4.6 mph - N/A   Scattered Clouds
2:55 AM 70.5 °F - 64.4 °F 81% 29.92 in 10.0 mi Calm Calm - N/A   Scattered Clouds
3:55 AM 68.4 °F - 63.5 °F 84% 29.92 in 10.0 mi WNW 3.5 mph - N/A   Partly Cloudy
5:55 AM 67.5 °F - 63.5 °F 87% 29.94 in 10.0 mi WNW 5.8 mph - N/A   Mostly Cloudy
6:55 AM 70.0 °F - 64.8 °F 83% 29.95 in 10.0 mi Calm Calm - N/A   Overcast
7:16 AM 71.6 °F - 66.2 °F 83% 29.95 in 10.0 mi Calm Calm - N/A   Overcast
7:33 AM 73.4 °F - 66.2 °F 78% 29.96 in 10.0 mi Calm Calm - N/A   Mostly Cloudy
7:55 AM 74.3 °F - 66.0 °F 75% 29.96 in 10.0 mi North 3.5 mph - N/A   Mostly Cloudy
8:55 AM 76.1 °F - 65.8 °F 70% 29.96 in 10.0 mi NE 8.1 mph - N/A   Overcast
9:55 AM 77.9 °F - 65.1 °F 65% 29.96 in 10.0 mi NE 8.1 mph - N/A   Mostly Cloudy
10:55 AM 80.6 °F 81.9 °F 63.3 °F 55% 29.95 in 10.0 mi East 13.8 mph 18.4 mph N/A   Clear
11:55 AM 81.7 °F 83.2 °F 64.0 °F 55% 29.95 in 10.0 mi ENE 12.7 mph - N/A   Partly Cloudy
12:55 PM 82.2 °F 83.3 °F 62.8 °F 52% 29.94 in 10.0 mi East 11.5 mph 17.3 mph N/A   Scattered Clouds
1:55 PM 82.8 °F 84.0 °F 63.3 °F 52% 29.93 in 10.0 mi East 11.5 mph - N/A   Clear
2:55 PM 83.3 °F 84.4 °F 63.7 °F 51% 29.91 in 10.0 mi ENE 15.0 mph - N/A   Clear
3:55 PM 82.4 °F 83.9 °F 64.2 °F 54% 29.91 in 10.0 mi ENE 15.0 mph - N/A   Clear
4:55 PM 79.9 °F - 65.5 °F 61% 29.91 in 10.0 mi NE 9.2 mph - N/A   Clear
5:55 PM 79.0 °F - 63.7 °F 59% 29.93 in 10.0 mi ENE 12.7 mph - N/A   Clear
6:55 PM 76.1 °F - 63.3 °F 64% 29.94 in 10.0 mi East 5.8 mph - N/A   Clear
7:55 PM 74.7 °F - 63.9 °F 69% 29.96 in 10.0 mi Calm Calm - N/A   Scattered Clouds
8:55 PM 73.9 °F - 63.7 °F 70% 29.96 in 10.0 mi WNW 4.6 mph - N/A   Mostly Cloudy
9:55 PM 73.4 °F - 64.4 °F 73% 29.97 in 10.0 mi NNW 4.6 mph - N/A   Scattered Clouds
10:55 PM 73.8 °F - 64.4 °F 72% 29.96 in 10.0 mi ENE 3.5 mph - N/A   Scattered Clouds
11:55 PM 73.4 °F - 64.0 °F 72% 29.96 in 10.0 mi Variable 4.6 mph - N/A   Partly Cloudy